Content
SEND FEEDBACK

Daily
Averages
Monthly
Summary
United States of America

MONTAGUE, TEXAS


Home > North America > United States > Texas
Elevation: 1080 feet     Latitude: 33 40N     Longitude: 097 45W

WEATHER
 
SELECT A DAY
Number of Records: 277,724;   Date Range: 5/16/03 - 9/30/14
 
SHARE

PRINT THIS DATA

[ ← Previous Day ]
WEATHER ALMANAC - JANUARY 23, 2013
[ Next Day → ]
[ °C ]   °F
Weather ElementAverageHighLow
Temperature59.5 °F71.6 °F (2:55 pm)50 °F (1:55 am)
Dewpoint47.3 °F51.8 °F (9:35 pm)44.6 °F (12:35 am)
Humidity65.6 %82 % (1:55 am)41 % (3:15 pm)
Barometer30.18 in30.25 in (9:35 am)30.12 in (5:35 pm)
Wind Speed8.9 mph13.8 mph (3:35 pm)
Weather ElementAverage
Visibility10 mi
Wind DirectionSSW (187.5 °)

Weather ElementTotal
Precipitation---
Heating Degree Days4.2 (Base 65)
Growing Degree Days10.8 (Base 50)
Averaged from 68 records on January 23, 2013
WEATHER CONDITIONS BREAKOUT
WIND DIRECTION BREAKOUT
WEATHER BY HOUR - JANUARY 23, 2013
[ °C ]   °F
Local TimeTemperatureDewpointHumidityBarometerVisibilityWind DirectionWind SpeedGust SpeedPrecipitationEventsConditions
12:35 AM51.8 °F44.6 °F76 %30.19 in10.0 miSouth (170°)12.7 mphClear
12:55 AM51.8 °F44.6 °F76 %30.19 in10.0 miSouth (170°)12.7 mphClear
1:15 AM51.8 °F44.6 °F76 %30.19 in10.0 miSouth (180°)12.7 mphClear
1:35 AM51.8 °F44.6 °F76 %30.19 in10.0 miSouth (180°)9.2 mphClear
1:55 AM50.0 °F44.6 °F82 %30.20 in10.0 miSouth (180°)6.9 mphClear
2:15 AM50.0 °F44.6 °F82 %30.20 in10.0 miSouth (190°)5.8 mphClear
2:35 AM50.0 °F44.6 °F82 %30.21 in10.0 miSSW (200°)4.6 mphClear
2:55 AM50.0 °F44.6 °F82 %30.21 in10.0 miSSW (200°)6.9 mphClear
3:15 AM50.0 °F44.6 °F82 %30.21 in10.0 miSouth (190°)6.9 mphMostly Cloudy
3:35 AM51.8 °F44.6 °F76 %30.21 in10.0 miSSW (200°)6.9 mphMostly Cloudy
3:55 AM51.8 °F44.6 °F76 %30.21 in10.0 miSW (220°)5.8 mphMostly Cloudy
4:15 AM51.8 °F44.6 °F76 %30.21 in10.0 miSSW (200°)5.8 mphMostly Cloudy
4:35 AM51.8 °F44.6 °F76 %30.21 in10.0 miSouth (190°)9.2 mphOvercast
4:55 AM51.8 °F44.6 °F76 %30.22 in10.0 miSSW (200°)6.9 mphMostly Cloudy
5:15 AM51.8 °F44.6 °F76 %30.21 in10.0 miSSW (200°)9.2 mphScattered Clouds
5:35 AM50.0 °F44.6 °F82 %30.21 in10.0 miSouth (190°)9.2 mphClear
5:55 AM50.0 °F44.6 °F82 %30.21 in10.0 miSouth (190°)10.4 mphClear
6:15 AM50.0 °F44.6 °F82 %30.21 in10.0 miSSW (200°)9.2 mphClear
6:55 AM50.0 °F44.6 °F82 %30.22 in10.0 miSSW (200°)9.2 mphClear
7:15 AM50.0 °F44.6 °F82 %30.22 in10.0 miSSW (200°)8.1 mphClear
7:35 AM50.0 °F44.6 °F82 %30.22 in10.0 miSSW (200°)9.2 mphClear
7:55 AM50.0 °F44.6 °F82 %30.23 in10.0 miSSW (210°)6.9 mphClear
8:15 AM50.0 °F44.6 °F82 %30.23 in10.0 miSSW (210°)6.9 mphClear
8:35 AM50.0 °F44.6 °F82 %30.23 in10.0 miSSW (210°)8.1 mphClear
8:55 AM51.8 °F44.6 °F76 %30.24 in10.0 miSSW (210°)10.4 mphClear
9:15 AM53.6 °F44.6 °F72 %30.24 in10.0 miSSW (210°)8.1 mphClear
9:35 AM53.6 °F44.6 °F72 %30.25 in10.0 miSSW (210°)10.4 mphClear
9:55 AM55.4 °F44.6 °F67 %30.24 in10.0 miSSW (210°)10.4 mphClear
10:15 AM57.2 °F46.4 °F67 %30.25 in10.0 miSSW (210°)11.5 mphClear
10:35 AM59.0 °F46.4 °F63 %30.25 in10.0 miSW (220°)10.4 mphClear
10:55 AM60.8 °F46.4 °F59 %30.25 in10.0 miSW (220°)9.2 mphClear
11:15 AM60.8 °F46.4 °F59 %30.25 in10.0 miSW (220°)8.1 mphClear
11:35 AM62.6 °F48.2 °F59 %30.24 in10.0 miSSW (210°)8.1 mphClear
11:55 AM64.4 °F50.0 °F59 %30.24 in10.0 miSW (220°)6.9 mphClear
12:15 PM66.2 °F50.0 °F56 %30.23 in10.0 miSSW (210°)5.8 mphClear
12:35 PM66.2 °F50.0 °F56 %30.22 in10.0 miSSW (200°)8.1 mphClear
12:55 PM68.0 °F50.0 °F52 %30.21 in10.0 miSSW (210°)8.1 mphClear
1:15 PM68.0 °F50.0 °F52 %30.19 in10.0 miSSW (200°)6.9 mphClear
1:35 PM69.8 °F50.0 °F49 %30.18 in10.0 miSSW (210°)6.9 mphClear
1:55 PM69.8 °F50.0 °F49 %30.17 in10.0 miWSW (240°)5.8 mphClear
2:15 PM69.8 °F48.2 °F46 %30.16 in10.0 miSW (220°)5.8 mphClear
2:35 PM69.8 °F48.2 °F46 %30.16 in10.0 miSW (220°)3.5 mphClear
2:55 PM71.6 °F48.2 °F43 %30.15 in10.0 miCalmClear
3:15 PM71.6 °F46.4 °F41 %30.14 in10.0 miSouth (190°)6.9 mphClear
3:35 PM71.6 °F48.2 °F43 %30.14 in10.0 miSouth (180°)13.8 mphClear
3:55 PM71.6 °F48.2 °F43 %30.14 in10.0 miSouth (190°)10.4 mphClear
4:15 PM71.6 °F48.2 °F43 %30.14 in10.0 miSouth (180°)12.7 mphClear
4:35 PM71.6 °F46.4 °F41 %30.13 in10.0 miSouth (170°)13.8 mphClear
4:55 PM71.6 °F46.4 °F41 %30.14 in10.0 miSouth (180°)12.7 mphClear
5:15 PM69.8 °F46.4 °F43 %30.13 in10.0 miSouth (180°)6.9 mphClear
5:35 PM69.8 °F48.2 °F46 %30.12 in10.0 miCalmClear
5:55 PM68.0 °F48.2 °F49 %30.12 in10.0 miSouth (180°)5.8 mphClear
6:15 PM66.2 °F50.0 °F56 %30.12 in10.0 miSouth (180°)6.9 mphClear
6:35 PM64.4 °F50.0 °F59 %30.12 in10.0 miSouth (180°)10.4 mphClear
6:55 PM64.4 °F50.0 °F59 %30.12 in10.0 miSouth (180°)9.2 mphClear
7:15 PM64.4 °F50.0 °F59 %30.12 in10.0 miSouth (170°)11.5 mphClear
7:35 PM62.6 °F50.0 °F63 %30.12 in10.0 miSouth (180°)11.5 mphClear
7:55 PM62.6 °F50.0 °F63 %30.13 in10.0 miSouth (170°)10.4 mphClear
8:15 PM62.6 °F50.0 °F63 %30.14 in10.0 miSSE (160°)6.9 mphClear
8:35 PM62.6 °F50.0 °F63 %30.14 in10.0 miSouth (170°)11.5 mphClear
8:55 PM62.6 °F50.0 °F63 %30.14 in10.0 miSouth (170°)11.5 mphClear
9:15 PM60.8 °F50.0 °F68 %30.14 in10.0 miSSE (160°)10.4 mphClear
9:35 PM60.8 °F51.8 °F72 %30.14 in10.0 miSouth (170°)10.4 mphClear
9:55 PM60.8 °F51.8 °F72 %30.14 in10.0 miSouth (170°)13.8 mphClear
10:15 PM60.8 °F51.8 °F72 %30.14 in10.0 miSouth (170°)13.8 mphClear
10:35 PM60.8 °F51.8 °F72 %30.14 in10.0 miSouth (180°)13.8 mphClear
11:15 PM59.0 °F51.8 °F77 %30.13 in10.0 miSouth (180°)12.7 mphClear
11:55 PM59.0 °F51.8 °F77 %30.12 in10.0 miSouth (180°)11.5 mphClear
Hourly data recorded from KLUD, located miles away from Montague, Texas







STORIES FROM OUR PARTNERS